CW0565 Weather Reports


time (UTC)temp
F
wind
direction
speed
knots
gust
knots
rain 1hr
in
rain 24hr
in
rain mn
in
humidity
%
barometer
mb
20260903171509 55 17 0.9 1.7 0.02 0.13 0.13 95 1002.6
20260903170010 55 19 0.0 0.9 0.02 0.13 0.13 94 1002.5
20260903164509 55 18 0.9 4.3 0.02 0.12 0.12 94 1002.5
20260903163010 55 73 0.9 3.5 0.03 0.11 0.11 93 1002.7
20260903161512 55 72 1.7 4.3 0.04 0.11 0.11 93 1003.1
20260903160012 56 343 0.0 0.9 0.04 0.10 0.10 93 1003.3
20260903154510 55 344 0.9 3.5 0.06 0.09 0.09 94 1003.4
20260903153014 56 343 0.0 2.6 0.05 0.08 0.08 94 1003.7
20260903151509 56 343 0.0 0.9 0.05 0.07 0.07 93 1004.0
20260903150009 55 343 0.0 2.6 0.04 0.06 0.06 93 1004.0
20260903144510 55 343 1.7 4.3 0.02 0.03 0.03 93 1003.9
20260903143009 55 342 0.9 5.2 0.02 0.03 0.03 92 1004.1
20260903141510 55 348 2.6 7.8 0.01 0.02 0.02 91 1004.1
20260903140009 55 5 1.7 4.3 0.01 0.02 0.02 90 1004.3
20260903134510 56 30 0.0 2.6 0.00 0.02 0.02 88 1004.6
20260903133015 56 29 0.0 1.7 0.00 0.02 0.02 87 1004.6
20260903131510 56 29 0.0 0.0 0.00 0.02 0.02 86 1004.8
20260903130010 56 29 0.0 3.5 0.00 0.02 0.02 85 1004.9
20260903124517 56 65 0.0 2.6 0.00 0.02 0.02 83 1004.8
20260903123009 55 59 0.9 5.2 0.00 0.02 0.02 82 1004.9
20260903121509 57 350 0.9 4.3 0.00 0.02 0.02 80 1005.0
20260903120010 56 342 0.0 2.6 0.00 0.02 0.02 82 1005.1
20260903114510 55 342 1.7 2.6 0.00 0.02 0.02 82 1005.4
20260903113009 55 341 0.9 4.3 0.00 0.02 0.02 83 1005.5
20260903111509 54 342 0.9 3.5 0.00 0.02 0.02 84 1005.7
20260903110012 53 342 0.9 3.5 0.00 0.02 0.02 83 1005.7
20260903104509 53 342 2.6 5.2 0.00 0.02 0.02 83 1006.0
20260903103010 53 355 1.7 4.3 0.00 0.02 0.02 82 1006.2
20260903101510 52 5 1.7 5.2 0.00 0.02 0.02 82 1006.3
20260903100012 51 12 2.6 5.2 0.01 0.02 0.02 81 1006.6
20260903094510 50 5 1.7 5.2 0.01 0.02 0.02 82 1006.7
20260903093013 50 12 1.7 6.1 0.02 0.02 0.02 84 1007.0
20260903091513 49 11 1.7 3.5 0.02 0.02 0.02 85 1007.1
20260903090010 48 12 1.7 4.3 0.01 0.02 0.01 82 1007.3
20260903084510 48 12 3.5 5.2 0.01 0.02 0.01 80 1007.5
20260903083010 48 5 3.5 7.8 0.00 0.01 0.00 79 1007.6
20260903081521 48 326 3.5 7.8 0.00 0.01 0.00 77 1007.7
20260903080010 47 5 2.6 7.8 0.00 0.01 0.00 78 1007.8
20260903074509 47 360 4.3 9.6 0.00 0.01 0.00 78 1008.0
20260903073014 47 26 4.3 8.7 0.00 0.01 0.00 78 1008.1
20260903071510 46 347 0.0 3.5 0.00 0.01 0.00 82 1008.1
20260903070009 45 347 0.9 7.0 0.00 0.01 0.00 83 1008.2
20260903064509 44 355 2.6 5.2 0.00 0.01 0.00 86 1008.5
20260903063009 44 319 0.0 3.5 0.00 0.01 0.00 88 1008.8
20260903061516 44 319 0.0 2.6 0.00 0.01 0.00 89 1008.7
20260903060010 43 319 0.9 3.5 0.00 0.01 0.00 89 1008.9
20260903054510 43 319 0.0 2.6 0.00 0.01 0.00 90 1009.1
20260903053009 42 319 0.0 3.5 0.00 0.01 0.00 90 1009.1
20260903051510 42 321 0.0 4.3 0.00 0.01 0.00 91 1009.2
20260903050009 41 319 0.9 4.3 0.00 0.01 0.00 91 1009.2
20260903044510 41 251 0.0 3.5 0.00 0.01 0.00 92 1009.3
20260903043009 40 251 0.9 2.6 0.00 0.01 0.00 92 1009.3
20260903041519 40 251 0.0 0.9 0.00 0.01 0.00 91 1009.6
20260903040009 40 251 0.0 3.5 0.00 0.01 0.00 91 1009.7
20260903034520 40 251 1.7 3.5 0.00 0.01 0.00 91 1009.8
20260903033009 40 251 0.0 2.6 0.00 0.01 0.00 90 1009.9
20260903031510 40 250 0.0 0.0 0.00 0.01 0.00 90 1010.1
20260903030009 40 251 0.0 0.0 0.00 0.01 0.00 90 1010.2
20260903024510 41 250 0.0 0.0 0.00 0.01 0.00 89 1010.3
20260903021514 42 251 0.0 0.0 0.00 0.01 0.00 89 1010.3
20260903020010 42 250 0.0 0.0 0.00 0.01 0.00 89 1010.3
20260903014511 42 251 0.0 0.0 0.00 0.01 0.00 88 1010.3
20260903013009 43 251 0.0 0.9 0.00 0.01 0.00 88 1010.4
20260903011510 43 251 0.0 2.6 0.00 0.01 0.00 88 1010.7
20260903010009 43 250 0.0 0.9 0.00 0.02 0.00 87 1010.7
20260903004512 44 251 0.0 1.7 0.00 0.02 0.00 87 1010.8
20260903003010 44 251 0.0 0.9 0.00 0.02 0.00 85 1010.9
20260903001511 44 251 0.0 0.0 0.00 0.02 0.00 83 1010.8
20260902234515 45 251 0.0 2.6 0.00 0.02 0.00 83 1011.0
20260902230014 47 251 0.0 0.0 0.00 0.03 0.00 80 1011.3
20260902223010 48 251 0.0 1.7 0.00 0.03 0.00 73 1011.5
20260902221516 48 251 0.0 1.7 0.00 0.03 0.00 71 1011.5
20260902220010 49 251 0.9 2.6 0.00 0.03 0.03 70 1011.4
20260902214512 49 251 0.0 2.6 0.00 0.03 0.03 68 1011.5
20260902213009 50 251 0.0 2.6 0.00 0.03 0.03 68 1011.5
20260902211510 50 251 0.0 1.7 0.00 0.03 0.03 66 1011.5
20260902210009 51 250 1.7 7.0 0.00 0.03 0.03 65 1011.4
20260902204510 51 269 0.9 7.0 0.00 0.03 0.03 65 1011.3
20260902203009 51 267 0.9 5.2 0.00 0.03 0.03 64 1011.3
20260902201511 52 305 0.0 1.7 0.00 0.03 0.03 63 1011.3
20260902200009 52 305 1.7 7.0 0.00 0.03 0.03 62 1011.4
20260902194513 53 243 1.7 6.1 0.00 0.03 0.03 61 1011.5
20260902193010 53 298 0.9 4.3 0.00 0.03 0.03 60 1011.2
20260902191510 53 293 1.7 6.1 0.00 0.03 0.03 58 1011.1
20260902190010 54 252 0.0 3.5 0.00 0.03 0.03 56 1011.0
20260902184510 55 251 0.0 7.8 0.00 0.03 0.03 54 1011.0
20260902183014 55 244 0.9 8.7 0.00 0.03 0.03 53 1010.9
20260902181510 56 280 5.2 8.7 0.00 0.03 0.03 51 1010.8
20260902180011 57 275 5.2 10.4 0.00 0.03 0.03 51 1010.6
20260902174510 58 288 3.5 13.9 0.00 0.03 0.03 48 1010.4
20260902173009 59 239 1.7 11.3 0.00 0.03 0.03 48 1010.3